FW7353 Weather Reports


time (UTC)temp
C
wind
direction
speed
KPH
gust
KPH
rain 1hr
cm
rain 24hr
cm
rain mn
cm
humidity
%
barometer
mb
20260505124541 17 0 0.0 0.0 0.00 0.00 0.00 92 1016.8
20260505123042 16 0 0.0 0.0 0.00 0.00 0.00 95 1016.7
20260505121539 15 0 0.0 0.0 0.00 0.00 0.00 95 1016.7
20260505120045 14 0 0.0 0.0 0.00 0.00 0.00 95 1016.5
20260505114548 13 0 0.0 0.0 0.00 0.00 0.00 94 1016.4
20260505113036 12 0 0.0 0.0 0.00 0.00 0.00 94 1016.2
20260505111535 12 0 0.0 0.0 0.00 0.00 0.00 94 1016.0
20260505101545 11 0 0.0 0.0 0.00 0.00 0.00 93 1015.4
20260505100038 12 0 0.0 0.0 0.00 0.00 0.00 93 1015.2
20260505094539 12 0 0.0 0.0 0.00 0.00 0.00 92 1015.1
20260505093034 12 0 0.0 0.0 0.00 0.00 0.00 92 1015.0
20260505091535 12 0 0.0 0.0 0.00 0.00 0.00 92 1015.0
20260505090042 12 0 0.0 0.0 0.00 0.00 0.00 92 1014.6
20260505084535 12 0 0.0 0.0 0.00 0.00 0.00 92 1014.6
20260505083035 12 0 0.0 0.0 0.00 0.00 0.00 92 1014.6
20260505081541 12 0 0.0 0.0 0.00 0.00 0.00 92 1014.7
20260505080036 12 0 0.0 0.0 0.00 0.00 0.00 91 1014.7
20260505074533 12 0 0.0 0.0 0.00 0.00 0.00 91 1014.4
20260505073037 12 0 0.0 0.0 0.00 0.00 0.00 91 1014.4
20260505071552 12 0 0.0 0.0 0.00 0.00 0.00 91 1014.4
20260505070040 12 0 0.0 0.0 0.00 0.00 0.00 90 1014.4
20260505064537 12 0 0.0 0.0 0.00 0.00 0.00 90 1014.5
20260505063042 13 0 0.0 0.0 0.00 0.00 0.00 90 1014.6
20260505061538 13 0 0.0 0.0 0.00 0.00 0.00 89 1014.9
20260505060046 13 0 0.0 0.0 0.00 0.00 0.00 89 1015.0
20260505054536 13 0 0.0 0.0 0.00 0.00 0.00 89 1015.1
20260505053034 13 0 0.0 0.0 0.00 0.00 0.00 88 1015.1
20260505051539 13 0 0.0 0.0 0.00 0.00 0.00 87 1015.2
20260505041537 14 0 0.0 0.0 0.00 0.00 0.00 84 1015.4
20260505040120 14 0 0.0 0.0 0.00 0.00 0.00 84 1015.3
20260505034541 14 0 0.0 0.0 0.00 0.00 0.00 82 1015.2
20260505033040 15 0 0.0 0.0 0.00 0.00 0.00 82 1015.2
20260505031535 15 0 0.0 0.0 0.00 0.00 0.00 81 1015.4
20260505030043 15 0 0.0 0.0 0.00 0.00 0.00 80 1015.5
20260505024540 15 0 0.0 0.0 0.00 0.00 0.00 79 1015.6
20260505023041 15 0 0.0 0.0 0.00 0.00 0.00 78 1015.5
20260505021539 16 0 0.0 0.0 0.00 0.00 0.00 77 1015.5
20260505020038 16 0 0.0 0.0 0.00 0.00 0.00 75 1015.2
20260505014536 16 0 0.0 0.0 0.00 0.00 0.00 74 1014.9
20260505013051 17 0 0.0 0.0 0.00 0.00 0.00 73 1015.0
20260505011535 17 0 0.0 0.0 0.00 0.00 0.00 71 1014.7
20260505010035 18 0 0.0 0.0 0.00 0.00 0.00 70 1014.4
20260505004537 18 0 0.0 0.0 0.00 0.00 0.00 68 1014.4
20260505003035 18 0 0.0 0.0 0.00 0.00 0.00 67 1014.4
20260505001534 19 0 0.0 0.0 0.00 0.00 0.00 65 1014.2
20260505000050 19 0 0.0 0.0 0.00 0.00 0.00 64 1014.1
20260504234535 20 0 0.0 0.0 0.00 0.00 0.00 62 1014.0
20260504233043 20 0 0.0 0.0 0.00 0.00 0.00 61 1014.1
20260504231535 20 0 0.0 0.0 0.00 0.00 0.00 61 1013.9
20260504230035 20 0 0.0 0.0 0.00 0.00 0.00 61 1013.9
20260504224533 20 0 0.0 0.0 0.00 0.00 0.00 60 1013.8
20260504223038 21 0 0.0 0.0 0.00 0.00 0.00 60 1013.9
20260504221538 21 0 0.0 0.0 0.00 0.00 0.00 62 1014.0
20260504220042 21 0 0.0 0.0 0.00 0.00 0.00 61 1014.0
20260504214541 21 0 0.0 0.0 0.00 0.00 0.00 61 1014.1
20260504213039 21 0 0.0 0.0 0.00 0.00 0.00 58 1013.9
20260504211541 21 0 0.0 0.0 0.00 0.00 0.00 62 1014.2
20260504210040 21 0 0.0 0.0 0.00 0.00 0.00 63 1014.3
20260504204535 21 0 0.0 0.0 0.00 0.00 0.00 63 1014.3
20260504203037 21 0 0.0 0.0 0.00 0.00 0.00 62 1014.4
20260504201536 22 0 0.0 0.0 0.00 0.00 0.00 62 1014.4
20260504200045 22 0 0.0 0.0 0.00 0.00 0.00 62 1014.6
20260504194547 22 0 0.0 0.0 0.00 0.00 0.00 55 1014.7
20260504193036 23 0 0.0 0.0 0.00 0.00 0.00 61 1014.7
20260504191537 23 0 0.0 0.0 0.00 0.00 0.00 62 1015.0
20260504190035 23 0 0.0 0.0 0.00 0.00 0.00 62 1015.0
20260504184542 22 0 0.0 0.0 0.00 0.00 0.00 65 1015.0